TBD775 ENBO-ENAN

Flight info

Callsign TBD775
Flight time 0h 38m
Altitude 17000
Route IBVIS
Aircraft TBM8/L-SBDFGRWY/G

Departure

Time 2026-04-26 08:56
Airport Bodø Airport (ENBO)

Arrival

Time 2026-04-26 09:35
Airport Andøya Airport, Andenes (ENAN)
Time Latitude Longitude Altitude Speed Heading
2026-04-26 08:32 67.27108 14.35986 38 ft 0 kts 74°
2026-04-26 08:52 67.27102 14.35996 11 ft 2 kts 223°
2026-04-26 08:53 67.27044 14.35961 37 ft 16 kts 169°
2026-04-26 08:53 67.27025 14.36153 37 ft 13 kts 78°
2026-04-26 08:53 67.27043 14.36421 38 ft 13 kts 81°
2026-04-26 08:53 67.27062 14.36671 40 ft 17 kts 77°
2026-04-26 08:54 67.27087 14.37001 44 ft 17 kts 78°
2026-04-26 08:54 67.27108 14.37260 48 ft 16 kts 78°
2026-04-26 08:54 67.27136 14.37594 50 ft 16 kts 77°
2026-04-26 08:54 67.27154 14.37819 51 ft 15 kts 78°
2026-04-26 08:55 67.27161 14.38016 51 ft 9 kts 88°
2026-04-26 08:55 67.27158 14.38279 50 ft 15 kts 106°
2026-04-26 08:55 67.27075 14.38362 49 ft 3 kts 275°
2026-04-26 08:55 67.27074 14.38346 49 ft 0 kts 256°
2026-04-26 08:56 67.27055 14.38104 48 ft 43 kts 256°
2026-04-26 08:56 67.26955 14.36821 63 ft 96 kts 271°
2026-04-26 08:56 67.26805 14.34924 339 ft 118 kts 265°
2026-04-26 08:56 67.26615 14.32767 788 ft 127 kts 268°
2026-04-26 08:57 67.26610 14.30561 1440 ft 115 kts 295°
2026-04-26 08:57 67.27005 14.28828 2064 ft 114 kts 315°
2026-04-26 08:57 67.27703 14.27630 2608 ft 125 kts 333°
2026-04-26 08:57 67.28506 14.26818 3291 ft 125 kts 343°
2026-04-26 08:58 67.29339 14.26189 3910 ft 126 kts 336°
2026-04-26 08:58 67.30109 14.25306 4684 ft 114 kts 331°
2026-04-26 08:58 67.30798 14.24243 5322 ft 113 kts 329°
2026-04-26 08:58 67.31469 14.23181 5903 ft 116 kts 327°
2026-04-26 08:59 67.32181 14.21974 6368 ft 126 kts 327°
2026-04-26 08:59 67.32880 14.20743 7037 ft 118 kts 327°
2026-04-26 08:59 67.33571 14.19521 7511 ft 126 kts 332°
2026-04-26 08:59 67.34459 14.19043 7890 ft 144 kts
2026-04-26 09:00 67.35404 14.20132 8456 ft 148 kts 30°
2026-04-26 09:00 67.36201 14.21588 9138 ft 141 kts 23°
2026-04-26 09:00 67.37099 14.22608 9757 ft 135 kts 19°
2026-04-26 09:00 67.37965 14.23568 10247 ft 140 kts 16°
2026-04-26 09:01 67.38864 14.24718 10769 ft 140 kts 25°
2026-04-26 09:01 67.39629 14.25930 11514 ft 126 kts 22°
2026-04-26 09:01 67.40516 14.26844 11727 ft 145 kts 15°
2026-04-26 09:01 67.41459 14.27718 12347 ft 140 kts 17°
2026-04-26 09:02 67.42375 14.28678 12783 ft 149 kts 19°
2026-04-26 09:02 67.43352 14.29722 13341 ft 146 kts 17°
2026-04-26 09:02 67.44279 14.30639 13895 ft 148 kts 16°
2026-04-26 09:02 67.45261 14.31720 14258 ft 155 kts 20°
2026-04-26 09:03 67.46209 14.32802 14919 ft 141 kts 15°
2026-04-26 09:03 67.47137 14.33656 15363 ft 145 kts 14°
2026-04-26 09:03 67.48098 14.34608 15796 ft 148 kts 16°
2026-04-26 09:03 67.49026 14.35597 16417 ft 139 kts 14°
2026-04-26 09:04 67.49914 14.36521 16903 ft 140 kts 14°
2026-04-26 09:04 67.50870 14.37540 17008 ft 162 kts 15°
2026-04-26 09:04 67.52023 14.38775 16988 ft 187 kts 14°
2026-04-26 09:04 67.53286 14.40073 17004 ft 205 kts 15°
2026-04-26 09:05 67.54676 14.41474 16902 ft 223 kts 15°
2026-04-26 09:05 67.56150 14.42943 16982 ft 230 kts 16°
2026-04-26 09:05 67.57659 14.44518 17026 ft 237 kts 17°
2026-04-26 09:05 67.59219 14.46056 17016 ft 241 kts 14°
2026-04-26 09:06 67.60814 14.47604 16945 ft 248 kts 16°
2026-04-26 09:06 67.62430 14.49212 16968 ft 249 kts 15°
2026-04-26 09:06 67.64049 14.50851 16984 ft 251 kts 17°
2026-04-26 09:06 67.65673 14.52607 16996 ft 251 kts 17°
2026-04-26 09:07 67.67295 14.54346 17007 ft 252 kts 17°
2026-04-26 09:07 67.68924 14.56115 16941 ft 254 kts 18°
2026-04-26 09:07 67.70556 14.57916 16883 ft 256 kts 17°
2026-04-26 09:07 67.72188 14.59716 16979 ft 253 kts 18°
2026-04-26 09:08 67.73805 14.61576 16976 ft 254 kts 19°
2026-04-26 09:08 67.75425 14.63435 16986 ft 253 kts 17°
2026-04-26 09:08 67.77065 14.65107 16993 ft 252 kts 15°
2026-04-26 09:08 67.78715 14.66655 17023 ft 252 kts 15°
2026-04-26 09:09 67.80356 14.68335 17003 ft 254 kts 18°
2026-04-26 09:09 67.81965 14.70339 16994 ft 256 kts 20°
2026-04-26 09:09 67.83561 14.72405 16999 ft 256 kts 21°
2026-04-26 09:09 67.85167 14.74444 17003 ft 255 kts 19°
2026-04-26 09:10 67.86801 14.76352 17012 ft 255 kts 17°
2026-04-26 09:10 67.88465 14.78063 17005 ft 255 kts 17°
2026-04-26 09:10 67.90133 14.79749 16929 ft 259 kts 17°
2026-04-26 09:10 67.91800 14.81433 17010 ft 256 kts 17°
2026-04-26 09:11 67.93471 14.83096 17002 ft 257 kts 16°
2026-04-26 09:11 67.95154 14.84747 17013 ft 257 kts 17°
2026-04-26 09:11 67.96827 14.86491 16942 ft 260 kts 18°
2026-04-26 09:11 67.98488 14.88432 16927 ft 260 kts 20°
2026-04-26 09:12 68.00124 14.90465 16924 ft 260 kts 20°
2026-04-26 09:12 68.01769 14.92436 16894 ft 261 kts 20°
2026-04-26 09:12 68.03434 14.94339 16967 ft 259 kts 18°
2026-04-26 09:12 68.05137 14.95911 16969 ft 259 kts 14°
2026-04-26 09:13 68.06856 14.97436 16984 ft 260 kts 15°
2026-04-26 09:13 68.08541 14.99178 17032 ft 260 kts 18°
2026-04-26 09:13 68.10214 15.01070 17021 ft 262 kts 20°
2026-04-26 09:13 68.11889 15.03111 16981 ft 264 kts 21°
2026-04-26 09:14 68.13562 15.05193 16976 ft 265 kts 21°
2026-04-26 09:14 68.15222 15.07328 16944 ft 266 kts 22°
2026-04-26 09:14 68.16883 15.09450 17010 ft 262 kts 19°
2026-04-26 09:14 68.18586 15.11264 16922 ft 266 kts 18°
2026-04-26 09:15 68.20316 15.13039 16929 ft 268 kts 18°
2026-04-26 09:15 68.22040 15.14810 16979 ft 267 kts 18°
2026-04-26 09:15 68.23783 15.16632 16924 ft 270 kts 19°
2026-04-26 09:15 68.25524 15.18552 16790 ft 274 kts 20°
2026-04-26 09:16 68.27324 15.20606 16480 ft 280 kts 20°
2026-04-26 09:16 68.29103 15.22621 16182 ft 283 kts 20°
2026-04-26 09:16 68.30946 15.24721 15907 ft 284 kts 20°
2026-04-26 09:16 68.32158 15.26102 15711 ft 285 kts 20°
2026-04-26 09:17 68.33983 15.28217 15359 ft 288 kts 20°
2026-04-26 09:17 68.35812 15.30389 15166 ft 284 kts 21°
2026-04-26 09:17 68.37624 15.32564 14817 ft 287 kts 21°
2026-04-26 09:17 68.39435 15.34716 14676 ft 282 kts 20°
2026-04-26 09:18 68.41248 15.36728 14429 ft 281 kts 18°
2026-04-26 09:18 68.43082 15.38598 14154 ft 282 kts 18°
2026-04-26 09:18 68.44909 15.40507 13956 ft 280 kts 18°
2026-04-26 09:18 68.46723 15.42499 13704 ft 281 kts 20°
2026-04-26 09:19 68.48511 15.44505 13586 ft 277 kts 20°
2026-04-26 09:19 68.50286 15.46422 13474 ft 272 kts 19°
2026-04-26 09:19 68.52065 15.48357 13044 ft 277 kts 20°
2026-04-26 09:19 68.53836 15.50428 12736 ft 278 kts 21°
2026-04-26 09:20 68.55576 15.52693 12419 ft 279 kts 23°
2026-04-26 09:20 68.57323 15.55004 12050 ft 278 kts 23°
2026-04-26 09:20 68.59057 15.57345 11663 ft 278 kts 23°
2026-04-26 09:20 68.60820 15.59490 11300 ft 276 kts 19°
2026-04-26 09:21 68.62595 15.61322 11108 ft 269 kts 18°
2026-04-26 09:21 68.64367 15.63041 10866 ft 263 kts 12°
2026-04-26 09:21 68.66096 15.64599 10562 ft 265 kts 21°
2026-04-26 09:21 68.67743 15.66889 10366 ft 262 kts 25°
2026-04-26 09:22 68.69351 15.69279 10025 ft 264 kts 24°
2026-04-26 09:22 68.70979 15.71572 9691 ft 262 kts 22°
2026-04-26 09:22 68.72628 15.73614 9402 ft 259 kts 20°
2026-04-26 09:22 68.74279 15.75659 9006 ft 260 kts 21°
2026-04-26 09:23 68.75913 15.77675 8733 ft 253 kts 20°
2026-04-26 09:23 68.77611 15.79207 8194 ft 257 kts 14°
2026-04-26 09:23 68.79281 15.80866 8002 ft 251 kts 19°
2026-04-26 09:23 68.80893 15.82663 7772 ft 250 kts 18°
2026-04-26 09:24 68.82505 15.84547 7384 ft 252 kts 20°
2026-04-26 09:24 68.84104 15.86512 7055 ft 252 kts 21°
2026-04-26 09:24 68.85696 15.88477 6757 ft 250 kts 19°
2026-04-26 09:24 68.87301 15.90299 6392 ft 251 kts 19°
2026-04-26 09:25 68.88879 15.92159 6103 ft 247 kts 22°
2026-04-26 09:25 68.90414 15.94312 5677 ft 248 kts 25°
2026-04-26 09:25 68.91921 15.96563 5370 ft 243 kts 23°
2026-04-26 09:25 68.93465 15.98523 4995 ft 245 kts 20°
2026-04-26 09:26 68.95049 16.00210 4781 ft 241 kts 17°
2026-04-26 09:26 68.96622 16.01767 4580 ft 239 kts 17°
2026-04-26 09:26 68.98166 16.03397 4391 ft 237 kts 19°
2026-04-26 09:26 68.99702 16.05133 4065 ft 240 kts 20°
2026-04-26 09:27 69.01239 16.06954 3834 ft 238 kts 20°
2026-04-26 09:27 69.02737 16.08829 3713 ft 233 kts 22°
2026-04-26 09:27 69.04192 16.10743 3598 ft 230 kts 22°
2026-04-26 09:27 69.05651 16.12644 3575 ft 226 kts 22°
2026-04-26 09:28 69.07062 16.14486 3638 ft 221 kts 21°
2026-04-26 09:28 69.08466 16.16352 3529 ft 224 kts 22°
2026-04-26 09:28 69.09820 16.18466 3533 ft 225 kts 33°
2026-04-26 09:28 69.10914 16.21623 3555 ft 227 kts 49°
2026-04-26 09:29 69.11797 16.25315 3541 ft 230 kts 55°
2026-04-26 09:29 69.12567 16.29334 3305 ft 236 kts 59°
2026-04-26 09:29 69.13428 16.33095 3056 ft 221 kts 41°
2026-04-26 09:29 69.14588 16.35456 2849 ft 194 kts 22°
2026-04-26 09:30 69.15811 16.35610 2533 ft 171 kts 347°
2026-04-26 09:30 69.16908 16.34803 2410 ft 151 kts 335°
2026-04-26 09:30 69.17773 16.33345 2431 ft 141 kts 327°
2026-04-26 09:30 69.18563 16.31782 2395 ft 139 kts 330°
2026-04-26 09:31 69.19390 16.30413 2348 ft 135 kts 331°
2026-04-26 09:31 69.20184 16.29223 2202 ft 126 kts 332°
2026-04-26 09:31 69.20943 16.27993 1931 ft 122 kts 332°
2026-04-26 09:31 69.21661 16.26820 1711 ft 117 kts 332°
2026-04-26 09:32 69.22371 16.25680 1458 ft 116 kts 332°
2026-04-26 09:32 69.23036 16.24617 1369 ft 108 kts 332°
2026-04-26 09:32 69.23666 16.23521 1336 ft 104 kts 329°
2026-04-26 09:32 69.24313 16.22453 1100 ft 111 kts 332°
2026-04-26 09:33 69.24978 16.21422 978 ft 106 kts 334°
2026-04-26 09:33 69.25645 16.20335 761 ft 111 kts 329°
2026-04-26 09:33 69.26276 16.19233 659 ft 110 kts 333°
2026-04-26 09:33 69.26922 16.18221 498 ft 100 kts 333°
2026-04-26 09:34 69.27510 16.17259 341 ft 95 kts 330°
2026-04-26 09:34 69.28063 16.16347 236 ft 92 kts 333°
2026-04-26 09:34 69.28615 16.15439 91 ft 92 kts 332°
2026-04-26 09:34 69.29145 16.14570 25 ft 77 kts 330°
2026-04-26 09:35 69.29502 16.13983 29 ft 51 kts 330°
2026-04-26 09:35 69.29787 16.13514 26 ft 44 kts 329°
2026-04-26 09:35 69.30011 16.13135 23 ft 28 kts 332°
2026-04-26 09:35 69.30116 16.13266 17 ft 14 kts 67°
2026-04-26 09:36 69.30125 16.13316 17 ft 0 kts 62°
2026-04-26 09:36 69.30128 16.13334 17 ft 6 kts 61°
2026-04-26 09:36 69.30225 16.13270 17 ft 16 kts 332°
2026-04-26 09:36 69.30313 16.13123 19 ft 13 kts 328°
2026-04-26 09:37 69.30412 16.12959 20 ft 21 kts 330°
2026-04-26 09:37 69.30548 16.12735 20 ft 18 kts 332°
2026-04-26 09:37 69.30668 16.12733 28 ft 18 kts 28°
2026-04-26 09:37 69.30780 16.12920 26 ft 18 kts 31°
2026-04-26 09:38 69.30922 16.12921 27 ft 22 kts 321°
2026-04-26 09:38 69.30958 16.12589 28 ft 20 kts 255°
2026-04-26 09:38 69.30972 16.12290 24 ft 14 kts 331°
2026-04-26 09:38 69.31023 16.12455 24 ft 5 kts 73°
2026-04-26 09:39 69.31024 16.12457 24 ft 0 kts 74°